Weather History for Dansville, NY

Change the Weather History Date:

Saturday, April 6, 2013

  Actual Average Record
Temperature  
Mean Temperature 36 °F -  
Max Temperature 52 °F 51 °F 79 °F (1985)
Min Temperature 19 °F 31 °F 17 °F (1971)
Degree Days  
Heating Degree Days 30    
Moisture  
Dew Point 16 °F    
Average Humidity 46    
Maximum Humidity 81    
Minimum Humidity 21    
Precipitation  
Precipitation 0.00 in - - ()
Sea Level Pressure  
Sea Level Pressure 30.25 in    
Wind  
Wind Speed 4 mph (SE)    
Max Wind Speed 12 mph    
Max Gust Speed 16 mph    
Visibility 10 miles    
Events      
Averages and records for this station are not official NWS values.
T = Trace of Precipitation, MM = Missing Value Source: NWS Daily Summary

Daily Weather History Graph

Daily Weather History Graph

Search for Another Location

Airport:

Trip Planner

Search our weather history database for the weather conditions in past years. The results will help you decide how hot, cold, wet, or windy it might be!

Date:

Astronomy

Apr. 06, 2013 Rise Set
Actual Time 6:44 AM EDT 7:42 PM EDT
Civil Twilight 6:15 AM EDT 8:11 PM EDT
Nautical Twilight 5:41 AM EDT 8:45 PM EDT
Astronomical Twilight 5:05 AM EDT 9:21 PM EDT
Moon 4:31 AM EDT (4/6) 4:05 PM EDT (4/6)
Length of Visible Light 13h 56m
Length of Day
12h 58m
Waning Crescent, 15% of the Moon is Illuminated
Apr 6
Waning Crescent
Apr 10
New
Apr 18
First Quarter
Apr 25
Full
May 2
Last Quarter

Hourly Weather History & Observations

Time (EDT) Temp. Windchill Dew Point Humidity Pressure Visibility Wind Dir Wind Speed Gust Speed Precip Events Conditions
12:54 AM 28.0 °F 22.8 °F 16.0 °F 61% 30.22 in 10.0 mi NW 4.6 mph - N/A   Partly Cloudy
1:54 AM 25.0 °F - 17.1 °F 72% 30.25 in 10.0 mi Calm Calm - N/A   Clear
2:54 AM 24.1 °F - 16.0 °F 71% 30.27 in 10.0 mi Calm Calm - N/A   Clear
3:54 AM 23.0 °F - 16.0 °F 74% 30.28 in 10.0 mi Calm Calm - N/A   Clear
4:54 AM 23.0 °F - 16.0 °F 74% 30.29 in 10.0 mi Calm Calm - N/A   Clear
5:54 AM 21.9 °F - 16.0 °F 78% 30.30 in 10.0 mi Calm Calm - N/A   Clear
6:54 AM 19.9 °F - 15.1 °F 81% 30.32 in 10.0 mi Calm Calm - N/A   Clear
7:54 AM 24.1 °F 19.7 °F 18.0 °F 77% 30.35 in 10.0 mi SE 3.5 mph - N/A   Clear
8:54 AM 30.0 °F - 19.0 °F 64% 30.37 in 10.0 mi Calm Calm - N/A   Clear
9:54 AM 34.0 °F - 19.0 °F 54% 30.37 in 10.0 mi Calm Calm - N/A   Clear
10:54 AM 36.0 °F - 16.0 °F 44% 30.36 in 10.0 mi Calm Calm - N/A   Clear
11:54 AM 39.9 °F 35.8 °F 16.0 °F 38% 30.35 in 10.0 mi SE 5.8 mph - N/A   Clear
12:54 PM 43.0 °F 38.8 °F 16.0 °F 34% 30.32 in 10.0 mi ESE 6.9 mph - N/A   Clear
1:54 PM 46.0 °F 41.9 °F 15.1 °F 29% 30.30 in 10.0 mi ESE 8.1 mph - N/A   Clear
2:54 PM 48.0 °F - 15.1 °F 27% 30.27 in 10.0 mi Variable 5.8 mph - N/A   Clear
3:54 PM 51.1 °F - 12.9 °F 22% 30.23 in 10.0 mi SSE 11.5 mph 16.1 mph N/A   Clear
4:54 PM 52.0 °F - 12.9 °F 21% 30.20 in 10.0 mi SE 9.2 mph - N/A   Clear
5:54 PM 52.0 °F - 15.1 °F 23% 30.19 in 10.0 mi SE 10.4 mph - N/A   Clear
6:54 PM 50.0 °F - 14.0 °F 24% 30.18 in 10.0 mi SE 8.1 mph - N/A   Clear
7:54 PM 48.9 °F - 14.0 °F 25% 30.16 in 10.0 mi SSE 6.9 mph - N/A   Mostly Cloudy
8:54 PM 48.0 °F - 12.9 °F 24% 30.16 in 10.0 mi South 6.9 mph - N/A   Clear
9:54 PM 45.0 °F 41.8 °F 17.1 °F 33% 30.14 in 10.0 mi SSE 5.8 mph - N/A   Scattered Clouds
10:54 PM 48.0 °F - 14.0 °F 26% 30.11 in 10.0 mi SE 10.4 mph - N/A   Partly Cloudy
11:54 PM 48.0 °F - 15.1 °F 27% 30.09 in 10.0 mi ESE 11.5 mph - N/A   Mostly Cloudy